Flag for Philippines Weather past 2 weeks in Makati, Philippines

Now
84 °F

Partly cloudy.


Feels Like: 90 °F
Forecast: 79 / 94 °F
Wind: 9 mph from Southeast

Location: National Airport

Current Time: Mar 31, 2015 at 7:48:38 PM

Latest Report: Mar 31, 2015 at 7:00 PM


Visibility: N/A

Pressure: 29.89 "Hg

Humidity: 66%

Dew point: 72 °F

Location of MakatiLocation

Historic Weather in Makati — Graph

°F

Makati temperature yesterday

Maximum temperature yesterday: 91 °F (at 1:00 PM)
Minimum temperature yesterday: 79 °F (at 2:00 AM)
Average temperature yesterday: 84 °F

Past Weeks' High & Low Weather Summary

 TemperatureHumidityPressure
High91 °F (Mar 19, 4:00 PM)100% (Mar 18, 7:00 PM)30.07 "Hg (Mar 18, 7:00 PM)
Low68 °F (Mar 18, 7:00 PM)36% (Mar 17, 2:00 PM)29.83 "Hg (Mar 17, 4:00 PM)
Average82 °F66%29.93 "Hg
* Reported Mar 16 6:00 PM — Mar 31 6:00 PM, Makati, Weather by CustomWeather, © 2015

Note: Actual official high and low records may vary slightly from our data, if they occured in-between our weather recording intervals... More about our weather records

Advertising

Makati weather history for previous 24 hours

 ConditionsComfort  
Time TempWeatherWind HumidityBarometerVisibility
6:00 PM
Tue, Mar 31
86 °FBroken clouds.12 mph62%29.86 "HgN/A
5:00 PM88 °FPartly sunny.13 mph59%29.83 "HgN/A
4:00 PM90 °FScattered clouds.14 mph55%29.83 "HgN/A
3:00 PM91 °FScattered clouds.13 mph52%29.83 "HgN/A
2:00 PM91 °FPartly sunny.13 mph52%29.86 "HgN/A
1:00 PM91 °FPartly sunny.13 mph52%29.89 "HgN/A
12:00 PM91 °FPartly sunny.14 mph49%29.92 "HgN/A
11:00 AM91 °FPartly sunny.9 mph49%29.95 "HgN/A
10:00 AM90 °FPartly sunny.8 mph49%29.98 "HgN/A
9:00 AM88 °FPartly sunny.7 mph52%29.98 "HgN/A
8:00 AM84 °FPartly sunny.7 mph58%29.98 "HgN/A
7:00 AM81 °FPartly sunny.5 mph66%29.95 "HgN/A
6:00 AM79 °FPartly sunny.6 mph74%29.92 "HgN/A
5:00 AM79 °FPassing clouds.10 mph74%29.92 "HgN/A
4:00 AM79 °FPassing clouds.9 mph74%29.92 "HgN/A
3:00 AM79 °FPassing clouds.7 mph74%29.92 "HgN/A
2:00 AM81 °FPassing clouds.9 mph70%29.92 "HgN/A
1:00 AM81 °FPassing clouds.8 mph70%29.95 "HgN/A
12:00 AM81 °FPassing clouds.9 mph70%29.95 "HgN/A
11:00 PM
Mon, Mar 30
81 °FPassing clouds.8 mph70%29.98 "HgN/A
10:00 PM81 °FPassing clouds.9 mph70%29.98 "HgN/A
9:00 PM82 °FPassing clouds.9 mph66%29.95 "HgN/A
8:00 PM82 °FPassing clouds.10 mph66%29.95 "HgN/A
7:00 PM84 °FPassing clouds.12 mph62%29.92 "HgN/A
Weather by CustomWeather, © 2015

See weather overviewHow to use our weather pages